Tracking 22879 objects as of 22-Apr-2021
HD Live streaming from Space Station
objects crossing your sky now

SL-8 DEB

Track SL-8 DEB now!
10-day predictions


NORAD ID: 39693
Int'l Code: 1991-009DG
Perigee: 1,493.3 km
Apogee: 1,698.8 km
Inclination: 74.0 °
Period: 118.0 minutes
Semi major axis: 7967 km
RCS: 0.018 m2 (small)
Launch date: February 12, 1991
Source: Commonwealth of Independent States (former USSR) (CIS)
Launch site: PLESETSK MISSILE AND SPACE COMPLEX (PKMTR)

Note: This is SATELLITE DEBRIS
aabbcc
Your satellite tracking list
Your tracking list is empty




NASA's NSSDC Master Catalog

Two Line Element Set (TLE):
1 39693U 91009DG  21110.09091040  .00000005  00000-0  17741-3 0  9995
2 39693  74.0375   8.6120 0128952  69.8689 291.6165 12.20838041312687
Source of the keplerian elements: AFSPC